Tracking 32139 objects as of 15-Nov-2025
HD Live streaming from Space Station
objects crossing your sky now

STARLINK-30998

Track STARLINK-30998 now!
10-day predictions
STARLINK-30998 is classified as:


NORAD ID: 58513
Int'l Code: 2023-191F
Perigee: 565.1 km
Apogee: 567.4 km
Inclination: 43.0 °
Period: 95.8 minutes
Semi major axis: 6937 km
RCS: Unknown
Launch date: December 7, 2023
Source: United States (US)
Launch site: AIR FORCE EASTERN TEST RANGE (AFETR)
Your satellite tracking list
Your tracking list is empty




NASA's NSSDC Master Catalog

Two Line Element Set (TLE):
1 58513U 23191F   25319.44878769  .00008083  00000-0  61305-3 0  9998
2 58513  43.0037   6.9817 0001627 274.4603  85.6053 15.02516721108280
Source of the keplerian elements: AFSPC